{"data":{"norad_id":64764,"epoch":"2026-05-24T17:09:55.179072Z","epoch_age_seconds":109869,"freshness":"FRESH","line1":"1 64764U 25147K   26144.71522198  .00016734  00000+0  50542-3 0  9997","line2":"2 64764  53.1574 248.7666 0000809  85.2917 274.8178 15.34392507 50441","mean_motion":15.34392507,"eccentricity":8.09e-5,"inclination_deg":53.1574,"raan_deg":248.7666,"arg_perigee_deg":85.2917,"mean_anomaly_deg":274.8178,"bstar":0.00050542,"rev_number":5044,"period_min":93.848216374274,"perigee_km":462.17208529567,"apogee_km":463.27893684996,"semimajor_km":6840.8625110728,"source":"CELESTRAK","updated_at":"2026-05-25T13:38:20.554904Z"}}